EW4582 Weather Reports


Display with metric or nautical units.
time (UTC)temp
F
wind
direction
speed
MPH
gust
MPH
rain 1hr
in
rain 24hr
in
rain mn
in
humidity
%
barometer
mb
20260507014625 58 359 0.0 0.0 0.00 0.01 0.01 87 1020.8
20260507014121 58 28 1.0 2.0 0.00 0.01 0.01 87 1020.8
20260507013618 58 44 0.0 0.0 0.00 0.01 0.01 87 1020.8
20260507013115 58 359 0.0 0.0 0.00 0.01 0.01 86 1021.2
20260507012612 58 52 0.0 0.0 0.00 0.01 0.01 85 1020.8
20260507012107 58 110 1.0 1.0 0.00 0.01 0.01 85 1020.8
20260507011606 58 34 0.0 0.0 0.00 0.01 0.01 86 1020.8
20260507011102 59 331 2.0 2.0 0.00 0.01 0.01 85 1020.8
20260507010556 59 46 0.0 0.0 0.00 0.01 0.01 84 1020.8
20260507010053 59 16 3.0 3.0 0.00 0.01 0.01 84 1020.8
20260507005550 59 19 2.0 2.0 0.00 0.01 0.01 83 1020.8
20260507005046 60 341 0.0 0.0 0.00 0.01 0.01 82 1020.8
20260507004543 60 35 1.0 1.0 0.00 0.01 0.01 83 1020.5
20260507004041 60 351 1.0 1.0 0.00 0.01 0.01 83 1020.8
20260507003536 60 34 1.0 1.0 0.00 0.01 0.01 83 1020.8
20260507003032 60 32 0.0 0.0 0.00 0.01 0.01 84 1020.5
20260507002528 59 125 0.0 1.0 0.00 0.01 0.01 84 1020.8
20260507002019 60 26 2.0 3.0 0.00 0.01 0.01 83 1020.5
20260507001515 60 0 1.0 1.0 0.00 0.01 0.01 83 1020.8
20260507001013 60 4 0.0 1.0 0.00 0.01 0.01 83 1020.8
20260507000509 59 103 0.0 1.0 0.00 0.01 0.01 84 1020.5
20260507000005 60 18 2.0 3.0 0.00 0.01 0.01 83 1020.5
20260506235502 60 4 1.0 2.0 0.00 0.01 0.01 82 1020.8
20260506234958 60 124 1.0 2.0 0.00 0.01 0.01 82 1020.5
20260506234455 61 89 0.0 1.0 0.00 0.01 0.01 81 1020.5
20260506233953 61 337 0.0 0.0 0.00 0.01 0.01 81 1020.5
20260506233449 61 44 1.0 2.0 0.00 0.01 0.01 81 1020.5
20260506232945 61 1 1.0 2.0 0.00 0.01 0.01 81 1020.8
20260506232442 61 322 1.0 1.0 0.00 0.01 0.01 81 1020.5
20260506231938 61 121 2.0 3.0 0.00 0.01 0.01 80 1020.5
20260506231436 61 9 0.0 1.0 0.00 0.01 0.01 81 1020.5
20260506230933 61 41 1.0 1.0 0.00 0.01 0.01 80 1020.8
20260506230429 62 6 1.0 2.0 0.00 0.01 0.01 79 1020.8
20260506225925 62 302 1.0 1.0 0.00 0.01 0.01 79 1020.8
20260506225423 62 22 0.0 1.0 0.00 0.01 0.01 80 1020.8
20260506224920 62 1 1.0 1.0 0.00 0.01 0.01 80 1020.8
20260506224417 63 351 1.0 2.0 0.00 0.01 0.01 79 1020.8
20260506223913 63 341 1.0 2.0 0.00 0.01 0.01 79 1020.8
20260506223409 64 357 0.0 1.0 0.00 0.01 0.01 76 1020.8
20260506222906 63 2 1.0 2.0 0.00 0.01 0.01 78 1020.8
20260506222402 62 78 0.0 1.0 0.00 0.01 0.01 80 1021.2
20260506221900 62 309 2.0 3.0 0.00 0.01 0.01 79 1021.2
20260506221356 62 345 1.0 2.0 0.00 0.01 0.01 79 1021.2
20260506220854 62 345 2.0 2.0 0.00 0.01 0.01 80 1021.2
20260506220350 62 346 1.0 2.0 0.00 0.01 0.01 79 1021.2
20260506215846 63 83 1.0 2.0 0.00 0.01 0.01 79 1021.5
20260506215342 62 351 1.0 1.0 0.00 0.01 0.01 79 1021.2
20260506214838 62 4 2.0 2.0 0.00 0.01 0.01 78 1021.5
20260506214335 64 26 0.0 1.0 0.00 0.01 0.01 77 1021.5
20260506213834 63 61 0.0 1.0 0.00 0.01 0.01 79 1021.5
20260506213330 62 342 1.0 1.0 0.00 0.01 0.01 80 1021.5
20260506212828 62 2 2.0 3.0 0.00 0.01 0.01 80 1021.5
20260506212323 62 355 2.0 2.0 0.00 0.01 0.01 79 1021.9
20260506211819 62 7 1.0 1.0 0.00 0.01 0.01 79 1021.5
20260506211315 62 356 1.0 1.0 0.00 0.01 0.01 80 1021.5
20260506210813 62 353 2.0 2.0 0.00 0.01 0.01 79 1021.9
20260506210309 62 20 1.0 1.0 0.00 0.01 0.01 80 1021.5
20260506205806 63 337 1.0 1.0 0.00 0.01 0.01 78 1021.5
20260506205305 63 347 1.0 1.0 0.00 0.01 0.01 80 1021.9
20260506204758 64 5 2.0 2.0 0.00 0.01 0.01 77 1021.5
20260506204257 63 24 1.0 1.0 0.00 0.01 0.01 79 1021.5
20260506203754 65 344 2.0 2.0 0.00 0.01 0.01 75 1021.5
20260506203251 65 95 1.0 1.0 0.00 0.01 0.01 74 1021.5
20260506202748 64 328 1.0 1.0 0.00 0.01 0.01 76 1021.9
20260506202245 63 33 1.0 2.0 0.00 0.01 0.01 77 1021.9
20260506201741 63 49 0.0 0.0 0.00 0.01 0.01 78 1021.5
20260506201238 64 326 1.0 2.0 0.00 0.01 0.01 76 1021.5
20260506200735 64 51 1.0 1.0 0.00 0.01 0.01 76 1021.9
20260506200232 64 329 1.0 2.0 0.00 0.01 0.01 76 1021.5
20260506195728 64 128 1.0 1.0 0.00 0.01 0.01 75 1021.9
20260506195225 63 22 2.0 2.0 0.00 0.01 0.01 75 1021.5
20260506194722 65 105 1.0 2.0 0.00 0.01 0.01 72 1021.5
20260506194218 63 327 0.0 0.0 0.00 0.01 0.01 76 1021.5
20260506193716 63 137 2.0 2.0 0.00 0.01 0.01 76 1021.5
20260506193213 63 345 2.0 2.0 0.00 0.01 0.01 75 1021.9
20260506192710 64 358 2.0 2.0 0.00 0.01 0.01 75 1021.5
20260506192206 65 339 2.0 2.0 0.00 0.01 0.01 73 1021.5
20260506191657 64 44 0.0 1.0 0.00 0.01 0.01 74 1021.5
20260506191153 62 12 0.0 0.0 0.00 0.01 0.01 78 1021.9
20260506190650 63 336 3.0 5.0 0.00 0.01 0.01 75 1021.9
20260506190147 62 349 2.0 2.0 0.00 0.01 0.01 77 1021.9
20260506185644 62 22 4.0 5.0 0.00 0.01 0.01 77 1021.9
20260506185140 63 349 2.0 2.0 0.00 0.01 0.01 75 1021.9
20260506184638 62 358 1.0 2.0 0.00 0.01 0.01 78 1021.9
20260506184135 63 351 2.0 2.0 0.00 0.01 0.01 77 1021.9
20260506183632 62 358 1.0 1.0 0.00 0.01 0.01 78 1021.9
20260506183128 63 356 0.0 1.0 0.00 0.01 0.01 77 1021.9
20260506182626 62 355 2.0 3.0 0.00 0.01 0.01 78 1021.9
20260506182122 63 0 2.0 2.0 0.00 0.01 0.01 78 1021.9
20260506181620 63 359 0.0 1.0 0.00 0.01 0.01 77 1021.9
20260506181117 62 344 1.0 1.0 0.00 0.01 0.01 79 1021.9
20260506180614 63 20 2.0 2.0 0.00 0.01 0.01 77 1021.5
20260506180110 63 67 0.0 2.0 0.00 0.01 0.01 78 1021.5
20260506175607 63 14 1.0 1.0 0.00 0.01 0.01 78 1021.5
20260506175103 63 3 1.0 1.0 0.00 0.01 0.01 77 1021.5
20260506174602 63 328 2.0 2.0 0.00 0.01 0.01 76 1021.9
20260506174057 64 354 2.0 2.0 0.00 0.01 0.01 75 1021.5
20260506173555 63 49 0.0 0.0 0.00 0.01 0.01 76 1021.5
20260506173052 62 76 0.0 0.0 0.00 0.01 0.01 77 1021.2
20260506172550 62 75 0.0 1.0 0.00 0.01 0.01 78 1021.5
20260506172045 62 3 1.0 2.0 0.00 0.01 0.01 78 1021.5
20260506171543 61 40 1.0 1.0 0.00 0.01 0.01 78 1021.5
20260506171040 61 0 0.0 2.0 0.00 0.01 0.01 79 1021.5
20260506170537 62 343 3.0 3.0 0.00 0.01 0.01 77 1021.5
20260506170029 62 64 0.0 0.0 0.00 0.01 0.01 77 1021.5
20260506165528 62 357 2.0 2.0 0.00 0.01 0.01 77 1021.5
20260506165024 62 0 3.0 5.0 0.00 0.01 0.01 77 1021.5
20260506164521 62 12 2.0 2.0 0.00 0.01 0.01 76 1021.9
20260506164018 62 339 0.0 0.0 0.00 0.01 0.01 75 1021.5
20260506163514 62 50 0.0 0.0 0.00 0.01 0.01 75 1021.5
20260506163010 61 352 1.0 1.0 0.00 0.01 0.01 77 1021.5
20260506162506 61 5 1.0 2.0 0.00 0.01 0.01 77 1021.9
20260506162003 60 26 1.0 2.0 0.00 0.01 0.01 77 1021.9
20260506161500 60 53 0.0 0.0 0.00 0.01 0.01 78 1021.9
20260506160952 59 88 1.0 1.0 0.00 0.01 0.01 79 1021.2
20260506160450 59 60 0.0 1.0 0.00 0.01 0.01 82 1021.9
20260506155947 58 53 0.0 0.0 0.00 0.01 0.01 85 1021.5
20260506155444 58 357 0.0 0.0 0.00 0.01 0.01 87 1021.5
20260506153616 55 91 0.0 0.0 0.00 0.01 0.01 97 1021.5
20260506153114 55 22 0.0 0.0 0.00 0.01 0.01 98 1021.5
20260506152611 55 22 0.0 0.0 0.00 0.01 0.01 98 1021.5
20260506152109 54 21 0.0 0.0 0.00 0.01 0.01 99 1021.5
20260506151607 54 21 0.0 0.0 0.00 0.01 0.01 99 1021.9
20260506151103 54 3 0.0 0.0 0.00 0.01 0.01 99 1021.9
20260506150600 54 359 0.0 0.0 0.00 0.01 0.01 99 1021.5
20260506150057 54 359 0.0 0.0 0.00 0.01 0.01 99 1021.9
20260506145554 54 359 0.0 0.0 0.00 0.01 0.01 99 1021.9
20260506145051 54 359 0.0 0.0 0.00 0.01 0.01 99 1021.9
20260506144548 53 359 0.0 0.0 0.00 0.01 0.01 99 1021.9
20260506144045 53 359 0.0 0.0 0.00 0.01 0.01 99 1021.5
20260506143543 52 359 0.0 0.0 0.00 0.01 0.01 99 1021.9
20260506143041 52 359 0.0 0.0 0.00 0.01 0.01 99 1021.9
20260506142538 52 359 0.0 0.0 0.00 0.01 0.01 99 1021.9
20260506142037 52 359 0.0 0.0 0.00 0.01 0.01 99 1021.9
20260506141534 52 359 0.0 0.0 0.00 0.01 0.01 99 1021.5
20260506141032 52 359 0.0 0.0 0.00 0.01 0.01 99 1021.9
20260506140529 52 359 0.0 0.0 0.00 0.01 0.01 99 1021.5
20260506140026 52 359 0.0 0.0 0.00 0.01 0.01 99 1021.9
20260506135523 52 359 0.0 0.0 0.00 0.01 0.01 99 1021.5
20260506135019 51 359 0.0 0.0 0.00 0.01 0.01 99 1021.2
20260506134516 51 359 0.0 0.0 0.00 0.01 0.01 99 1021.5
20260506134012 51 359 0.0 0.0 0.00 0.01 0.01 99 1021.2
20260506133509 50 359 0.0 0.0 0.00 0.01 0.01 99 1021.2
20260506133006 50 359 0.0 0.0 0.00 0.01 0.01 99 1021.2
20260506132503 50 359 0.0 0.0 0.00 0.01 0.01 99 1021.5
20260506132000 50 359 0.0 0.0 0.05 0.01 0.01 99 1021.2
20260506131457 50 359 0.0 0.0 0.05 0.01 0.01 99 1021.2
20260506130954 50 359 0.0 0.0 0.00 0.00 0.00 99 1021.2
20260506130450 50 359 0.0 0.0 0.00 0.00 0.00 99 1021.2
20260506125948 50 359 0.0 0.0 0.00 0.00 0.00 99 1021.2
20260506125446 50 359 0.0 0.0 0.00 0.00 0.00 99 1021.2
20260506124944 50 359 0.0 0.0 0.00 0.00 0.00 99 1021.2
20260506124441 50 359 0.0 0.0 0.00 0.00 0.00 99 1020.8
20260506123939 50 359 0.0 0.0 0.00 0.00 0.00 99 1020.8
20260506123437 50 359 0.0 0.0 0.00 0.00 0.00 99 1021.2
20260506122934 50 359 0.0 0.0 0.00 0.00 0.00 99 1020.8
20260506122431 50 359 0.0 0.0 0.00 0.00 0.00 99 1021.2
20260506121929 50 359 0.0 0.0 0.00 0.00 0.00 99 1020.8
20260506121426 50 359 0.0 0.0 0.00 0.00 0.00 99 1020.8
20260506120923 50 359 0.0 0.0 0.00 0.00 0.00 99 1020.8
20260506120420 50 359 0.0 0.0 0.00 0.00 0.00 99 1020.8
20260506115917 50 359 0.0 0.0 0.00 0.00 0.00 99 1020.8
20260506115415 50 359 0.0 0.0 0.00 0.00 0.00 98 1020.5
20260506114914 50 359 0.0 0.0 0.00 0.00 0.00 98 1020.5
20260506114411 50 359 0.0 0.0 0.00 0.00 0.00 98 1020.5
20260506113910 50 359 0.0 0.0 0.00 0.00 0.00 98 1020.5
20260506113407 50 359 0.0 0.0 0.00 0.00 0.00 98 1020.5
20260506112903 50 359 0.0 0.0 0.00 0.00 0.00 98 1020.8
20260506112401 50 359 0.0 0.0 0.00 0.00 0.00 98 1020.5
20260506111858 50 359 0.0 0.0 0.00 0.00 0.00 98 1020.8
20260506111356 50 359 0.0 0.0 0.00 0.00 0.00 98 1020.8
20260506110853 50 359 0.0 0.0 0.00 0.00 0.00 98 1020.5
20260506110350 50 359 0.0 0.0 0.00 0.00 0.00 98 1020.5
20260506105847 50 359 0.0 0.0 0.00 0.00 0.00 98 1020.8
20260506105343 50 359 0.0 0.0 0.00 0.00 0.00 98 1020.5
20260506104841 50 359 0.0 0.0 0.00 0.00 0.00 98 1020.5
20260506104338 51 359 0.0 0.0 0.00 0.00 0.00 98 1020.5
20260506103836 51 359 0.0 0.0 0.00 0.00 0.00 98 1020.5
20260506103333 51 359 0.0 0.0 0.00 0.00 0.00 98 1020.5
20260506102831 51 359 0.0 0.0 0.00 0.00 0.00 98 1020.8
20260506102328 51 359 0.0 0.0 0.00 0.00 0.00 98 1020.5
20260506101825 51 359 0.0 0.0 0.00 0.00 0.00 98 1020.8
20260506101321 52 359 0.0 0.0 0.00 0.00 0.00 98 1020.8
20260506100820 52 359 0.0 0.0 0.00 0.00 0.00 98 1020.8
20260506100318 52 359 0.0 0.0 0.00 0.00 0.00 98 1020.5
20260506095816 52 359 0.0 0.0 0.00 0.00 0.00 98 1020.8
20260506095312 52 359 0.0 0.0 0.00 0.00 0.00 98 1020.8
20260506094809 52 359 0.0 0.0 0.00 0.00 0.00 98 1020.8
20260506094308 52 29 0.0 0.0 0.00 0.00 0.00 98 1020.8
20260506093806 52 29 0.0 0.0 0.00 0.00 0.00 98 1020.8
20260506093302 52 29 0.0 0.0 0.00 0.00 0.00 97 1020.8
20260506092801 52 29 0.0 0.0 0.00 0.00 0.00 97 1020.8
20260506092258 52 29 0.0 0.0 0.00 0.00 0.00 97 1020.8
20260506091755 52 29 0.0 0.0 0.00 0.00 0.00 97 1020.8
20260506091252 52 29 0.0 0.0 0.00 0.00 0.00 97 1020.5
20260506090750 52 29 0.0 0.0 0.00 0.00 0.00 97 1020.8
20260506090247 52 29 0.0 0.0 0.00 0.00 0.00 97 1020.5
20260506085744 52 29 0.0 0.0 0.00 0.00 0.00 97 1020.8
20260506085240 51 29 0.0 0.0 0.00 0.00 0.00 97 1020.8
20260506084736 52 29 0.0 0.0 0.00 0.00 0.00 97 1020.5
20260506084232 52 29 0.0 0.0 0.00 0.00 0.00 97 1020.5
20260506083730 52 29 0.0 0.0 0.00 0.00 0.00 97 1020.5
20260506083222 51 29 0.0 0.0 0.00 0.00 0.00 96 1020.8
20260506082719 52 29 0.0 0.0 0.00 0.00 0.00 96 1020.5
20260506082215 52 29 0.0 0.0 0.00 0.00 0.00 96 1020.5
20260506081713 52 29 0.0 0.0 0.00 0.00 0.00 96 1020.8
20260506081210 52 29 0.0 0.0 0.00 0.00 0.00 96 1020.2
20260506080708 51 29 0.0 0.0 0.00 0.00 0.00 96 1020.8
20260506080204 52 29 0.0 0.0 0.00 0.00 0.00 96 1020.5
20260506073148 52 29 0.0 0.0 0.00 0.00 0.00 94 1020.5
20260506072644 53 29 0.0 0.0 0.00 0.00 0.00 94 1020.5
20260506072143 53 29 0.0 0.0 0.00 0.00 0.00 94 1020.2
20260506071640 53 29 0.0 0.0 0.00 0.00 0.00 94 1020.5
20260506071137 53 29 0.0 0.0 0.00 0.00 0.00 94 1020.5
20260506070634 53 29 0.0 0.0 0.00 0.00 0.00 93 1020.5
20260506070131 53 29 0.0 0.0 0.00 0.00 0.00 93 1020.2
20260506062109 55 29 0.0 0.0 0.00 0.00 0.00 91 1020.2
20260506061604 55 29 0.0 0.0 0.00 0.00 0.00 91 1020.2
20260506061102 55 29 0.0 0.0 0.00 0.00 0.00 91 1020.2
20260506060601 56 29 0.0 0.0 0.00 0.00 0.00 91 1020.2
20260506051029 57 29 0.0 0.0 0.00 0.00 0.00 88 1019.8
20260506050527 57 29 0.0 0.0 0.00 0.00 0.00 88 1019.8
20260506045018 57 29 0.0 0.0 0.00 0.00 0.00 88 1019.5
20260506044516 57 29 0.0 0.0 0.00 0.00 0.00 88 1019.8
20260506044012 57 29 0.0 0.0 0.00 0.00 0.00 88 1019.8
20260506043509 57 29 0.0 0.0 0.00 0.00 0.00 88 1019.5
20260506043008 57 29 0.0 0.0 0.00 0.00 0.00 88 1019.5
20260506042506 57 29 0.0 0.0 0.00 0.00 0.00 88 1019.5
20260506042004 57 29 0.0 0.0 0.00 0.00 0.00 88 1019.5
20260506041502 57 29 0.0 0.0 0.00 0.00 0.00 88 1019.5
20260506040959 57 29 0.0 0.0 0.00 0.00 0.00 88 1019.5
20260506040456 57 29 0.0 0.0 0.00 0.00 0.00 88 1019.5
20260506035952 57 29 0.0 0.0 0.00 0.00 0.00 88 1019.5
20260506035450 57 29 0.0 0.0 0.00 0.00 0.00 88 1019.5
20260506034946 57 29 0.0 0.0 0.00 0.00 0.00 88 1019.2
20260506034443 57 29 0.0 0.0 0.00 0.00 0.00 88 1019.2
20260506033940 57 29 0.0 0.0 0.00 0.00 0.00 87 1019.2
20260506033438 57 29 0.0 0.0 0.00 0.00 0.00 87 1018.8
20260506032934 57 30 0.0 0.0 0.00 0.00 0.00 87 1018.8
20260506032432 57 29 0.0 0.0 0.00 0.00 0.00 88 1018.8
20260506031928 57 30 0.0 0.0 0.00 0.00 0.00 87 1018.8
20260506031425 57 30 0.0 0.0 0.00 0.00 0.00 87 1018.5
20260506030923 57 29 0.0 0.0 0.00 0.00 0.00 87 1018.5
20260506030421 57 31 0.0 0.0 0.00 0.00 0.00 87 1018.5
20260506025917 57 56 0.0 0.0 0.00 0.00 0.00 87 1018.5
20260506025415 57 56 0.0 0.0 0.00 0.00 0.00 86 1018.1
20260506024911 57 18 0.0 1.0 0.00 0.00 0.00 86 1018.5
20260506024408 57 18 0.0 1.0 0.00 0.00 0.00 86 1018.8
20260506023904 57 27 0.0 0.0 0.00 0.00 0.00 86 1018.5
20260506023401 57 24 1.0 1.0 0.00 0.00 0.00 86 1018.8
20260506022857 57 11 1.0 2.0 0.00 0.00 0.00 86 1018.5
20260506022355 57 12 0.0 0.0 0.00 0.00 0.00 86 1018.5
20260506021853 57 20 0.0 1.0 0.00 0.00 0.00 85 1018.5
20260506021350 57 19 0.0 1.0 0.00 0.00 0.00 85 1018.8
20260506020846 57 33 0.0 1.0 0.00 0.00 0.00 84 1018.5
20260506020345 58 32 0.0 0.0 0.00 0.00 0.00 83 1018.5
20260506015842 58 32 0.0 0.0 0.00 0.00 0.00 83 1018.1
20260506015339 58 47 0.0 0.0 0.00 0.00 0.00 82 1018.5